• In Kazakhstan
  • List of Countries
  • For 7 days
  • Water Temperature
  • Weather Map
  • News
  • Weather Widgets
  • user-avatar
    Login

    Hourly Weather Vidin

    Today, 27 January, Monday

    Time Temperature Precipitation Wind Pressure Humidity
    00:00 +7°C° 0 mm 1 mps 762 mmHg 73%
    01:00 +7°C° 0 mm 1 mps 762 mmHg 74%
    02:00 +6°C° 0 mm 1 mps 761 mmHg 76%
    03:00 +6°C° 0 mm 1 mps 761 mmHg 76%
    04:00 +6°C° 0 mm 1 mps 760 mmHg 75%
    05:00 +6°C° 0 mm 1 mps 760 mmHg 75%
    06:00 +5°C° 0 mm 1 mps 760 mmHg 75%
    07:00 +5°C° 0 mm 1 mps 760 mmHg 76%
    08:00 +5°C° 0 mm 1 mps 760 mmHg 76%
    09:00 +6°C° 0.3 mm 1 mps 760 mmHg 76%
    10:00 +6°C° 0.3 mm 1 mps 759 mmHg 76%
    11:00 +6°C° 0.3 mm 1 mps 759 mmHg 76%
    12:00 +6°C° 0.5 mm 1 mps 759 mmHg 78%
    13:00 +6°C° 0.5 mm 1 mps 759 mmHg 81%
    14:00 +5°C° 0.5 mm 2 mps 759 mmHg 84%
    15:00 +6°C° 0.1 mm 1 mps 759 mmHg 85%
    16:00 +6°C° 0.1 mm 1 mps 759 mmHg 85%
    17:00 +6°C° 0.1 mm 1 mps 759 mmHg 86%
    18:00 +5°C° 0 mm 2 mps 759 mmHg 85%
    19:00 +6°C° 0 mm 2 mps 759 mmHg 85%
    20:00 +6°C° 0 mm 2 mps 759 mmHg 85%
    21:00 +5°C° 0 mm 3 mps 759 mmHg 84%
    22:00 +5°C° 0 mm 3 mps 759 mmHg 84%
    23:00 +6°C° 0 mm 4 mps 759 mmHg 84%

    Tomorrow, 28 January, Tuesday

    Time Temperature Precipitation Wind Pressure Humidity
    00:00 +5°C° 0 mm 4 mps 759 mmHg 84%
    01:00 +5°C° 0 mm 4 mps 758 mmHg 85%
    02:00 +4°C° 0 mm 4 mps 758 mmHg 85%
    03:00 +4°C° 0 mm 4 mps 758 mmHg 85%
    04:00 +4°C° 0 mm 4 mps 757 mmHg 85%
    05:00 +4°C° 0 mm 3 mps 757 mmHg 86%
    06:00 +3°C° 0 mm 3 mps 757 mmHg 86%
    07:00 +3°C° 0 mm 3 mps 757 mmHg 87%
    08:00 +3°C° 0 mm 3 mps 757 mmHg 88%
    09:00 +4°C° 0 mm 3 mps 757 mmHg 82%
    10:00 +7°C° 0 mm 3 mps 756 mmHg 75%
    11:00 +8°C° 0 mm 3 mps 756 mmHg 69%
    12:00 +10°C° 0 mm 3 mps 755 mmHg 64%
    13:00 +11°C° 0 mm 3 mps 755 mmHg 59%
    14:00 +12°C° 0 mm 3 mps 754 mmHg 54%
    15:00 +12°C° 0 mm 3 mps 754 mmHg 56%
    16:00 +11°C° 0 mm 3 mps 754 mmHg 58%
    17:00 +12°C° 0 mm 2 mps 754 mmHg 60%
    18:00 +10°C° 0 mm 3 mps 753 mmHg 64%
    19:00 +10°C° 0 mm 3 mps 753 mmHg 67%
    20:00 +9°C° 0 mm 3 mps 753 mmHg 71%
    21:00 +9°C° 0 mm 3 mps 753 mmHg 71%
    22:00 +9°C° 0 mm 3 mps 752 mmHg 71%
    23:00 +9°C° 0 mm 3 mps 752 mmHg 71%

    Day after tomorrow, 29 January, Wednesday

    Time Temperature Precipitation Wind Pressure Humidity
    00:00 +9°C° 0.2 mm 3 mps 752 mmHg 72%
    01:00 +9°C° 0.2 mm 3 mps 751 mmHg 73%
    02:00 +8°C° 0.2 mm 4 mps 751 mmHg 74%
    03:00 +7°C° 2.1 mm 5 mps 751 mmHg 76%
    04:00 +7°C° 2.1 mm 6 mps 751 mmHg 79%
    05:00 +5°C° 2.1 mm 8 mps 751 mmHg 81%
    06:00 +5°C° 0.2 mm 7 mps 752 mmHg 80%
    07:00 +4°C° 0.2 mm 6 mps 753 mmHg 78%
    08:00 +3°C° 0.2 mm 6 mps 754 mmHg 77%
    09:00 +4°C° 0 mm 6 mps 754 mmHg 70%
    10:00 +5°C° 0 mm 6 mps 754 mmHg 64%
    11:00 +7°C° 0 mm 5 mps 755 mmHg 58%
    12:00 +7°C° 0 mm 5 mps 754 mmHg 52%
    13:00 +8°C° 0 mm 4 mps 754 mmHg 46%
    14:00 +10°C° 0 mm 3 mps 753 mmHg 40%
    15:00 +9°C° 0 mm 3 mps 754 mmHg 43%
    16:00 +9°C° 0 mm 3 mps 754 mmHg 45%
    17:00 +9°C° 0 mm 3 mps 754 mmHg 48%
    18:00 +8°C° 0 mm 3 mps 754 mmHg 53%
    19:00 +7°C° 0 mm 2 mps 755 mmHg 59%
    20:00 +6°C° 0 mm 2 mps 756 mmHg 64%
    21:00 +6°C° 0 mm 2 mps 756 mmHg 68%
    22:00 +4°C° 0 mm 3 mps 757 mmHg 71%
    23:00 +4°C° 0 mm 3 mps 757 mmHg 75%

    30 January, Thursday

    Time Temperature Precipitation Wind Pressure Humidity
    00:00 +4°C° 0 mm 3 mps 757 mmHg 77%
    01:00 +3°C° 0 mm 3 mps 757 mmHg 79%
    02:00 +3°C° 0 mm 3 mps 757 mmHg 81%
    03:00 +3°C° 0 mm 3 mps 758 mmHg 81%
    04:00 +3°C° 0 mm 3 mps 758 mmHg 81%
    05:00 +2°C° 0 mm 3 mps 758 mmHg 81%
    06:00 +2°C° 0 mm 3 mps 758 mmHg 81%
    07:00 +2°C° 0 mm 3 mps 759 mmHg 80%
    08:00 +2°C° 0 mm 3 mps 759 mmHg 79%
    09:00 +3°C° 0 mm 4 mps 759 mmHg 72%
    10:00 +3°C° 0 mm 5 mps 759 mmHg 65%
    11:00 +4°C° 0 mm 6 mps 760 mmHg 58%
    12:00 +4°C° 0 mm 7 mps 760 mmHg 56%
    13:00 +5°C° 0 mm 8 mps 760 mmHg 54%
    14:00 +5°C° 0 mm 8 mps 760 mmHg 53%
    15:00 +4°C° 0 mm 8 mps 761 mmHg 55%
    16:00 +4°C° 0 mm 7 mps 761 mmHg 58%
    17:00 +3°C° 0 mm 7 mps 762 mmHg 60%
    18:00 +3°C° 0 mm 7 mps 762 mmHg 64%
    19:00 +2°C° 0 mm 6 mps 762 mmHg 67%
    20:00 +1°C° 0 mm 6 mps 763 mmHg 70%
    21:00 +1°C° 0 mm 6 mps 763 mmHg 71%
    22:00 +1°C° 0 mm 5 mps 763 mmHg 71%
    23:00 +1°C° 0 mm 5 mps 763 mmHg 71%

    31 January, Friday

    Time Temperature Precipitation Wind Pressure Humidity
    00:00 +1°C° 0 mm 5 mps 763 mmHg 72%
    01:00 0°C° 0 mm 4 mps 762 mmHg 72%
    02:00 +1°C° 0 mm 3 mps 762 mmHg 73%
    03:00 +1°C° 0 mm 3 mps 762 mmHg 72%
    04:00 +1°C° 0 mm 3 mps 762 mmHg 72%
    05:00 +2°C° 0 mm 2 mps 761 mmHg 71%
    06:00 +2°C° 0 mm 2 mps 761 mmHg 71%
    07:00 +2°C° 0 mm 2 mps 761 mmHg 70%
    08:00 +2°C° 0 mm 2 mps 761 mmHg 69%
    09:00 +3°C° 0 mm 2 mps 760 mmHg 61%
    10:00 +5°C° 0 mm 2 mps 760 mmHg 52%
    11:00 +6°C° 0 mm 2 mps 759 mmHg 44%
    12:00 +8°C° 0 mm 3 mps 759 mmHg 40%
    13:00 +9°C° 0 mm 3 mps 758 mmHg 36%
    14:00 +10°C° 0 mm 4 mps 757 mmHg 32%
    15:00 +10°C° 0 mm 4 mps 757 mmHg 34%
    16:00 +8°C° 0 mm 4 mps 757 mmHg 36%
    17:00 +8°C° 0 mm 4 mps 757 mmHg 38%
    18:00 +7°C° 0 mm 4 mps 757 mmHg 40%
    19:00 +7°C° 0 mm 5 mps 757 mmHg 43%
    20:00 +6°C° 0 mm 5 mps 757 mmHg 45%
    21:00 +7°C° 0 mm 5 mps 757 mmHg 46%
    22:00 +7°C° 0 mm 6 mps 757 mmHg 48%
    23:00 +8°C° 0 mm 6 mps 757 mmHg 50%

    1 February, Saturday

    Time Temperature Precipitation Wind Pressure Humidity
    00:00 +8°C° 0 mm 7 mps 757 mmHg 52%
    01:00 +8°C° 0 mm 7 mps 758 mmHg 54%
    02:00 +7°C° 0 mm 8 mps 758 mmHg 56%
    03:00 +8°C° 0 mm 7 mps 758 mmHg 57%
    04:00 +8°C° 0 mm 7 mps 758 mmHg 58%
    05:00 +8°C° 0 mm 7 mps 758 mmHg 59%
    06:00 +8°C° 0 mm 7 mps 758 mmHg 60%
    07:00 +8°C° 0 mm 7 mps 759 mmHg 61%
    08:00 +6°C° 0 mm 7 mps 759 mmHg 62%
    09:00 +9°C° 0 mm 7 mps 759 mmHg 60%
    10:00 +10°C° 0 mm 7 mps 760 mmHg 57%
    11:00 +11°C° 0 mm 7 mps 760 mmHg 55%
    12:00 +11°C° 0 mm 7 mps 760 mmHg 55%
    13:00 +12°C° 0 mm 7 mps 760 mmHg 54%
    14:00 +12°C° 0 mm 7 mps 760 mmHg 54%
    15:00 +13°C° 0 mm 6 mps 760 mmHg 56%
    16:00 +12°C° 0 mm 5 mps 760 mmHg 57%
    17:00 +12°C° 0 mm 5 mps 760 mmHg 59%
    18:00 +11°C° 0 mm 4 mps 761 mmHg 62%
    19:00 +11°C° 0 mm 4 mps 761 mmHg 64%
    20:00 +10°C° 0 mm 3 mps 761 mmHg 66%
    21:00 +10°C° 0 mm 3 mps 761 mmHg 69%
    22:00 +9°C° 0 mm 3 mps 761 mmHg 71%
    23:00 +9°C° 0 mm 3 mps 762 mmHg 73%
    Show more